Overview Statistics Trail Chart Weather Telemetry Raw packets
 

This is the latest recevied weather packets stored in our database for station/object WA4ORT. If no packets are shown the sender has not sent any weather packets the latest 10 day(s).

<< 2 3 4 5 6 7 8 >>
Time Temp. Humidity Pressure Rain* Wind** Luminosity Snow
1788546719 31.67° C - - 0 mm 1.79 m/s, 15° - -
1788546674 31.67° C - - 0 mm 1.79 m/s, 15° - -
1788545780 31.11° C - - 0 mm 2.24 m/s, 325° - -
1788544882 31.67° C - - 0 mm 0.89 m/s, 1° - -
1788544034 30° C - - 0 mm 1.34 m/s, 87° - -
1788543987 30° C - - 0 mm 1.34 m/s, 87° - -
1788542195 30.56° C - - 0 mm 1.34 m/s, 172° - -
1788540407 30° C - - 0 mm 1.79 m/s, 48° - -
1788538614 28.89° C - - 0 mm 1.79 m/s, 58° - -
1788537720 28.89° C - - 0 mm 0.89 m/s, 55° - -
1788536856 28.89° C - - 0 mm 2.24 m/s, 68° - -
1788536822 28.89° C - - 0 mm 2.24 m/s, 68° - -
1788535928 28.33° C - - 0 mm 1.79 m/s, 13° - -
1788535033 27.78° C - - 0 mm 0.45 m/s, 343° - -
1788533241 27.22° C - - 0 mm 1.34 m/s, 83° - -
1788532347 26.67° C - - 0 mm 1.79 m/s, 319° - -
1788531449 26.11° C - - 0 mm 1.34 m/s, 340° - -
1788530555 26.11° C - - 0 mm 1.79 m/s, 8° - -
1788528762 25.56° C - - 0 mm 0.45 m/s, 72° - -
1788526974 24.44° C - - 0 mm 0.89 m/s, 75° - -
1788526076 24.44° C - - 0 mm 0 m/s - -
1788525182 23.89° C - - 0 mm 0 m/s - -
1788524287 23.33° C - - 0 mm 0 m/s - -
1788523389 23.33° C - - 0 mm 0 m/s - -
1788522495 23.33° C - - 0 mm 0 m/s - -

* Rain latest hour (hover to see other rain measurements)
** Current wind speed in m/s (hover to see current wind gust speed)